Clear Lake, IA

7:12 PM CDT on September 27, 2016 (GMT -0500)
Mason City Municipal

Weather History for KMCW - August, 2013

Change the Weather History Date:

Saturday, August 10, 2013

  Actual Average Record
Temperature  
Mean Temperature 65 °F 70 °F  
Max Temperature 78 °F 81 °F 98 °F (1947)
Min Temperature 51 °F 59 °F 45 °F (1967)
Degree Days  
Heating Degree Days 0 1  
Month to date heating degree days 4 5  
Since 1 June heating degree days 77 58  
Since 1 July heating degree days 24 14  
Cooling Degree Days 0 6  
Month to date cooling degree days 20 60  
Year to date cooling degree days 428 454  
Since 1 June cooling degree days 391 419  
Growing Degree Days 15 (Base 50)    
Moisture  
Dew Point 56 °F    
Average Humidity 74    
Maximum Humidity 100    
Minimum Humidity 48    
Precipitation  
Precipitation 0.00 in 0.13 in 3.33 in (1980)
Month to date precipitation 1.01 1.36  
Year to date precipitation 32.10 23.68  
Snow  
Snow 0.00 in 0.00 in - ()
Month to date snowfall 0.0 0.0  
Since 1 June snowfall 0.0 0.0  
Since 1 July snowfall 0.0 0.0  
Snow Depth 0.00 in    
Sea Level Pressure  
Sea Level Pressure 30.16 in    
Wind  
Wind Speed 3 mph (West)    
Max Wind Speed 12 mph    
Max Gust Speed 14 mph    
Visibility 10 miles    
Events      
T = Trace of Precipitation, MM = Missing Value Source: NWS Daily Summary

Daily Weather History Graph

Daily Weather History Graph

Search for Another Location

Airport or City:

Trip Planner

Search our weather history database for the weather conditions in past years. The results will help you decide how hot, cold, wet, or windy it might be!

Date:

Astronomy

Aug. 10, 2013 Rise Set
Actual Time 6:13 AM CDT 8:22 PM CDT
Civil Twilight 5:42 AM CDT 8:53 PM CDT
Nautical Twilight 5:03 AM CDT 9:32 PM CDT
Astronomical Twilight 4:21 AM CDT 10:14 PM CDT
Moon 10:08 AM CDT (8/10) 9:55 PM CDT (8/10)
Length of Visible Light 15h 11m
Length of Day
14h 09m
Waxing Crescent, 14% of the Moon is Illuminated
Aug 10
Waxing Crescent
Aug 14
First Quarter
Aug 20
Full
Aug 28
Last Quarter
Sep 5
New

Hourly Weather History & Observations

Time (CDT) Temp. Dew Point Humidity Pressure Visibility Wind Dir Wind Speed Gust Speed Precip Events Conditions
12:53 AM 55.9 °F 52.0 °F 87% 30.16 in 10.0 mi West 4.6 mph - N/A   Clear
1:53 AM 54.0 °F 51.1 °F 90% 30.16 in 10.0 mi Calm Calm - N/A   Clear
2:53 AM 53.1 °F 51.1 °F 93% 30.16 in 10.0 mi Calm Calm - N/A   Clear
3:53 AM 52.0 °F 51.1 °F 97% 30.18 in 10.0 mi Calm Calm - N/A   Clear
4:53 AM 52.0 °F 50.0 °F 93% 30.18 in 10.0 mi WNW 4.6 mph - N/A   Clear
5:53 AM 52.0 °F 50.0 °F 93% 30.19 in 10.0 mi West 4.6 mph - N/A   Scattered Clouds
6:53 AM 55.0 °F 52.0 °F 89% 30.19 in 10.0 mi West 3.5 mph - N/A   Mostly Cloudy
7:53 AM 60.1 °F 55.0 °F 83% 30.19 in 10.0 mi Calm Calm - N/A   Overcast
8:53 AM 64.9 °F 57.0 °F 75% 30.20 in 10.0 mi West 4.6 mph - N/A   Partly Cloudy
9:53 AM 69.1 °F 55.9 °F 63% 30.19 in 10.0 mi West 4.6 mph - N/A   Clear
10:53 AM 71.1 °F 54.0 °F 55% 30.21 in 10.0 mi WNW 5.8 mph - N/A   Overcast
11:53 AM 73.0 °F 54.0 °F 51% 30.21 in 10.0 mi West 6.9 mph - N/A   Partly Cloudy
12:53 PM 73.9 °F 55.0 °F 52% 30.19 in 10.0 mi Variable 5.8 mph - N/A   Clear
1:53 PM 75.0 °F 55.9 °F 51% 30.19 in 10.0 mi Variable 5.8 mph - N/A   Partly Cloudy
2:53 PM 77.0 °F 57.0 °F 50% 30.17 in 10.0 mi WSW 11.5 mph - N/A   Mostly Cloudy
3:53 PM 77.0 °F 57.9 °F 52% 30.15 in 10.0 mi NW 4.6 mph - N/A   Scattered Clouds
4:53 PM 78.1 °F 57.9 °F 50% 30.14 in 10.0 mi WNW 4.6 mph - N/A   Mostly Cloudy
5:53 PM 78.1 °F 60.1 °F 54% 30.13 in 10.0 mi West 8.1 mph - N/A   Partly Cloudy
6:53 PM 75.9 °F 60.1 °F 58% 30.12 in 10.0 mi West 3.5 mph - N/A   Mostly Cloudy
7:53 PM 73.0 °F 63.0 °F 71% 30.10 in 10.0 mi Calm Calm - N/A   Overcast
8:53 PM 71.1 °F 64.0 °F 78% 30.10 in 10.0 mi Calm Calm - N/A   Mostly Cloudy
9:53 PM 68.0 °F 63.0 °F 84% 30.10 in 10.0 mi Calm Calm - N/A   Mostly Cloudy
10:53 PM 68.0 °F 62.1 °F 81% 30.09 in 10.0 mi ESE 3.5 mph - N/A   Mostly Cloudy
11:53 PM 66.9 °F 63.0 °F 87% 30.10 in 10.0 mi Calm Calm - N/A   Mostly Cloudy